RFD012 MMMY-KMFE

Flight info

Callsign RFD012
Flight time 0h 54m
Altitude 7000
Route DOTOR1A DOTOR V35 REX
Aircraft C208/L-SDFGR/C

Departure

Time 2026-05-06 05:58
Airport Monterrey International Airport (MMMY)

Arrival

Time 2026-05-06 06:52
Airport McAllen Miller International Airport (KMFE)
Time Latitude Longitude Altitude Speed Heading
2026-05-06 05:50 25.77982 -100.11462 1280 ft 0 kts 121°
2026-05-06 05:56 25.77985 -100.11447 1281 ft 0 kts 29°
2026-05-06 05:56 25.77986 -100.11447 1281 ft 0 kts 14°
2026-05-06 05:56 25.77987 -100.11448 1281 ft 0 kts 359°
2026-05-06 05:56 25.77992 -100.11449 1282 ft 3 kts
2026-05-06 05:57 25.78031 -100.11405 1280 ft 0 kts 107°
2026-05-06 05:57 25.77980 -100.11315 1280 ft 41 kts 122°
2026-05-06 05:57 25.77820 -100.11027 1279 ft 57 kts 122°
2026-05-06 05:57 25.77519 -100.10531 1337 ft 93 kts 128°
2026-05-06 05:58 25.77131 -100.09898 1476 ft 108 kts 121°
2026-05-06 05:58 25.76816 -100.09204 1864 ft 100 kts 115°
2026-05-06 05:58 25.76508 -100.08487 2095 ft 105 kts 117°
2026-05-06 05:58 25.76174 -100.07716 2231 ft 116 kts 117°
2026-05-06 05:59 25.75994 -100.06848 2429 ft 117 kts 87°
2026-05-06 05:59 25.76106 -100.05974 2715 ft 112 kts 86°
2026-05-06 05:59 25.76208 -100.05143 3005 ft 108 kts 89°
2026-05-06 05:59 25.76314 -100.04357 3326 ft 102 kts 86°
2026-05-06 06:00 25.76455 -100.03536 3452 ft 115 kts 84°
2026-05-06 06:00 25.76583 -100.02628 3653 ft 115 kts 83°
2026-05-06 06:00 25.76809 -100.01788 3885 ft 117 kts 81°
2026-05-06 06:00 25.76993 -100.00878 4029 ft 124 kts 83°
2026-05-06 06:01 25.77398 -100.00019 4191 ft 135 kts 43°
2026-05-06 06:01 25.78027 -99.99287 4357 ft 132 kts 64°
2026-05-06 06:01 25.78350 -99.98347 4535 ft 128 kts 87°
2026-05-06 06:01 25.78475 -99.97362 4705 ft 129 kts 90°
2026-05-06 06:02 25.78470 -99.96387 4865 ft 128 kts 95°
2026-05-06 06:02 25.78462 -99.95403 5046 ft 128 kts 95°
2026-05-06 06:02 25.78411 -99.94419 5204 ft 128 kts 96°
2026-05-06 06:02 25.78347 -99.93436 5371 ft 128 kts 97°
2026-05-06 06:03 25.78280 -99.92460 5531 ft 127 kts 97°
2026-05-06 06:03 25.78211 -99.91493 5694 ft 125 kts 97°
2026-05-06 06:03 25.78139 -99.90534 5856 ft 125 kts 97°
2026-05-06 06:03 25.78063 -99.89578 6027 ft 124 kts 97°
2026-05-06 06:04 25.77980 -99.88624 6184 ft 124 kts 97°
2026-05-06 06:04 25.77889 -99.87674 6342 ft 124 kts 97°
2026-05-06 06:04 25.77800 -99.86725 6489 ft 124 kts 96°
2026-05-06 06:04 25.78043 -99.85831 6645 ft 130 kts 48°
2026-05-06 06:05 25.78637 -99.85119 6781 ft 124 kts 76°
2026-05-06 06:05 25.78648 -99.84183 6949 ft 121 kts 94°
2026-05-06 06:05 25.78628 -99.83240 7120 ft 123 kts 93°
2026-05-06 06:05 25.78610 -99.82286 7282 ft 124 kts 93°
2026-05-06 06:06 25.78594 -99.81327 7435 ft 124 kts 92°
2026-05-06 06:06 25.78581 -99.80368 7596 ft 125 kts 93°
2026-05-06 06:06 25.78568 -99.79413 7756 ft 126 kts 93°
2026-05-06 06:06 25.78558 -99.78437 7920 ft 127 kts 94°
2026-05-06 06:07 25.78546 -99.77420 7968 ft 137 kts 94°
2026-05-06 06:07 25.78530 -99.76328 7972 ft 145 kts 93°
2026-05-06 06:07 25.78512 -99.75188 7969 ft 150 kts 93°
2026-05-06 06:07 25.78490 -99.74018 7966 ft 153 kts 93°
2026-05-06 06:08 25.78470 -99.72831 7960 ft 154 kts 93°
2026-05-06 06:08 25.78449 -99.71642 7958 ft 154 kts 93°
2026-05-06 06:08 25.78428 -99.70450 7954 ft 155 kts 93°
2026-05-06 06:08 25.78405 -99.69259 7952 ft 155 kts 94°
2026-05-06 06:09 25.78382 -99.68064 7953 ft 154 kts 94°
2026-05-06 06:09 25.78356 -99.66875 7948 ft 154 kts 94°
2026-05-06 06:09 25.78330 -99.65681 7949 ft 154 kts 94°
2026-05-06 06:09 25.78305 -99.64490 7950 ft 155 kts 93°
2026-05-06 06:10 25.78280 -99.63295 7950 ft 155 kts 93°
2026-05-06 06:10 25.78254 -99.62099 7949 ft 155 kts 93°
2026-05-06 06:10 25.78228 -99.60906 7951 ft 155 kts 93°
2026-05-06 06:10 25.78204 -99.59708 7951 ft 155 kts 93°
2026-05-06 06:11 25.78180 -99.58513 7950 ft 155 kts 93°
2026-05-06 06:11 25.78156 -99.57316 7952 ft 155 kts 93°
2026-05-06 06:11 25.78161 -99.56118 7950 ft 155 kts 90°
2026-05-06 06:11 25.78195 -99.54919 7945 ft 155 kts 90°
2026-05-06 06:12 25.78227 -99.53720 7948 ft 155 kts 90°
2026-05-06 06:12 25.78257 -99.52523 7950 ft 156 kts 90°
2026-05-06 06:12 25.78288 -99.51339 7948 ft 155 kts 90°
2026-05-06 06:12 25.78322 -99.50142 7948 ft 155 kts 90°
2026-05-06 06:13 25.78356 -99.48946 7948 ft 155 kts 90°
2026-05-06 06:13 25.78388 -99.47754 7943 ft 155 kts 90°
2026-05-06 06:13 25.78421 -99.46557 7946 ft 155 kts 90°
2026-05-06 06:13 25.78455 -99.45363 7945 ft 155 kts 90°
2026-05-06 06:14 25.78487 -99.44165 7946 ft 156 kts 90°
2026-05-06 06:14 25.78519 -99.42962 7945 ft 156 kts 90°
2026-05-06 06:14 25.78554 -99.41760 7945 ft 156 kts 90°
2026-05-06 06:14 25.78590 -99.40556 7947 ft 156 kts 90°
2026-05-06 06:15 25.78624 -99.39352 7946 ft 156 kts 90°
2026-05-06 06:15 25.78660 -99.38154 7945 ft 155 kts 90°
2026-05-06 06:15 25.78696 -99.36955 7942 ft 155 kts 90°
2026-05-06 06:15 25.78731 -99.35756 7942 ft 156 kts 90°
2026-05-06 06:16 25.78766 -99.34555 7942 ft 156 kts 90°
2026-05-06 06:16 25.78801 -99.33355 7945 ft 156 kts 89°
2026-05-06 06:16 25.78835 -99.32150 7942 ft 156 kts 90°
2026-05-06 06:16 25.78872 -99.30943 7943 ft 156 kts 90°
2026-05-06 06:17 25.78896 -99.30148 7943 ft 156 kts 91°
2026-05-06 06:17 25.78935 -99.28944 7944 ft 156 kts 90°
2026-05-06 06:17 25.78974 -99.27739 7943 ft 156 kts 90°
2026-05-06 06:17 25.79014 -99.26534 7944 ft 156 kts 90°
2026-05-06 06:18 25.79055 -99.25333 7943 ft 156 kts 90°
2026-05-06 06:18 25.79093 -99.24129 7974 ft 154 kts 90°
2026-05-06 06:18 25.79133 -99.22944 7994 ft 154 kts 90°
2026-05-06 06:18 25.79233 -99.21759 7992 ft 156 kts 82°
2026-05-06 06:19 25.79439 -99.20576 7992 ft 156 kts 82°
2026-05-06 06:19 25.79632 -99.19389 7994 ft 157 kts 82°
2026-05-06 06:19 25.79828 -99.18199 7995 ft 157 kts 82°
2026-05-06 06:19 25.80024 -99.17009 7998 ft 157 kts 82°
2026-05-06 06:20 25.80221 -99.15813 7998 ft 158 kts 82°
2026-05-06 06:20 25.80418 -99.14615 7998 ft 158 kts 82°
2026-05-06 06:20 25.80615 -99.13415 7995 ft 159 kts 82°
2026-05-06 06:20 25.80814 -99.12209 7997 ft 159 kts 82°
2026-05-06 06:21 25.81015 -99.11003 7997 ft 159 kts 81°
2026-05-06 06:21 25.81249 -99.09802 7995 ft 159 kts 80°
2026-05-06 06:21 25.81488 -99.08601 7999 ft 159 kts 79°
2026-05-06 06:21 25.81725 -99.07399 7997 ft 159 kts 80°
2026-05-06 06:22 25.81960 -99.06214 7998 ft 159 kts 80°
2026-05-06 06:22 25.82200 -99.04999 7998 ft 159 kts 80°
2026-05-06 06:22 25.82441 -99.03795 7995 ft 160 kts 79°
2026-05-06 06:22 25.82684 -99.02594 7994 ft 160 kts 79°
2026-05-06 06:23 25.82927 -99.01389 7994 ft 160 kts 80°
2026-05-06 06:23 25.83167 -99.00197 7993 ft 160 kts 79°
2026-05-06 06:23 25.83465 -98.99004 7996 ft 161 kts 76°
2026-05-06 06:23 25.83784 -98.97809 7996 ft 161 kts 76°
2026-05-06 06:24 25.84099 -98.96614 7997 ft 161 kts 76°
2026-05-06 06:24 25.84416 -98.95423 7995 ft 161 kts 76°
2026-05-06 06:24 25.84736 -98.94233 7995 ft 161 kts 76°
2026-05-06 06:24 25.85055 -98.93040 7994 ft 161 kts 76°
2026-05-06 06:25 25.85373 -98.91846 7995 ft 161 kts 75°
2026-05-06 06:25 25.85692 -98.90650 7994 ft 162 kts 76°
2026-05-06 06:25 25.86332 -98.88252 7996 ft 162 kts 76°
2026-05-06 06:26 25.86657 -98.87051 7999 ft 162 kts 76°
2026-05-06 06:26 25.86971 -98.85851 7995 ft 162 kts 77°
2026-05-06 06:26 25.87257 -98.84642 7995 ft 162 kts 78°
2026-05-06 06:26 25.87541 -98.83434 7999 ft 161 kts 78°
2026-05-06 06:27 25.87827 -98.82227 7999 ft 162 kts 78°
2026-05-06 06:27 25.88114 -98.81019 8001 ft 162 kts 77°
2026-05-06 06:27 25.88403 -98.79807 8000 ft 162 kts 78°
2026-05-06 06:27 25.88690 -98.78599 8000 ft 162 kts 78°
2026-05-06 06:28 25.88975 -98.77388 8000 ft 162 kts 78°
2026-05-06 06:28 25.89262 -98.76175 7999 ft 162 kts 78°
2026-05-06 06:28 25.89549 -98.74960 8002 ft 163 kts 78°
2026-05-06 06:28 25.89837 -98.73745 8003 ft 163 kts 77°
2026-05-06 06:29 25.90126 -98.72528 8003 ft 163 kts 78°
2026-05-06 06:29 25.90414 -98.71312 8002 ft 162 kts 78°
2026-05-06 06:29 25.90704 -98.70100 8004 ft 162 kts 77°
2026-05-06 06:29 25.90978 -98.68941 8004 ft 162 kts 78°
2026-05-06 06:30 25.91266 -98.67729 8002 ft 163 kts 78°
2026-05-06 06:30 25.91553 -98.66509 8002 ft 163 kts 78°
2026-05-06 06:30 25.91844 -98.65287 8005 ft 164 kts 77°
2026-05-06 06:30 25.92136 -98.64066 8005 ft 164 kts 78°
2026-05-06 06:31 25.92429 -98.62845 8004 ft 163 kts 77°
2026-05-06 06:31 25.92719 -98.61626 8004 ft 164 kts 78°
2026-05-06 06:31 25.93010 -98.60403 8003 ft 163 kts 78°
2026-05-06 06:31 25.93296 -98.59191 7880 ft 165 kts 78°
2026-05-06 06:32 25.93584 -98.57955 7741 ft 165 kts 78°
2026-05-06 06:32 25.93869 -98.56718 7606 ft 166 kts 78°
2026-05-06 06:32 25.94156 -98.55478 7444 ft 166 kts 78°
2026-05-06 06:32 25.94437 -98.54239 7260 ft 165 kts 77°
2026-05-06 06:33 25.94715 -98.52998 7078 ft 165 kts 78°
2026-05-06 06:33 25.94987 -98.51760 6898 ft 165 kts 78°
2026-05-06 06:33 25.95259 -98.50517 6719 ft 165 kts 77°
2026-05-06 06:33 25.95524 -98.49284 6538 ft 164 kts 78°
2026-05-06 06:34 25.95785 -98.48058 6359 ft 162 kts 77°
2026-05-06 06:34 25.96040 -98.46840 6177 ft 161 kts 78°
2026-05-06 06:34 25.96292 -98.45631 5989 ft 160 kts 78°
2026-05-06 06:34 25.96546 -98.44427 5799 ft 160 kts 78°
2026-05-06 06:35 25.96802 -98.43230 5609 ft 159 kts 78°
2026-05-06 06:35 25.97062 -98.42036 5420 ft 159 kts 78°
2026-05-06 06:35 25.97323 -98.40849 5231 ft 158 kts 77°
2026-05-06 06:35 25.97586 -98.39667 5046 ft 157 kts 78°
2026-05-06 06:36 25.97846 -98.38492 4859 ft 156 kts 78°
2026-05-06 06:36 25.98107 -98.37318 4681 ft 156 kts 78°
2026-05-06 06:36 25.98371 -98.36150 4490 ft 156 kts 77°
2026-05-06 06:36 25.98638 -98.34997 4306 ft 156 kts 78°
2026-05-06 06:37 25.99076 -98.33900 4099 ft 160 kts 51°
2026-05-06 06:37 26.00019 -98.33222 3903 ft 163 kts 31°
2026-05-06 06:37 26.01011 -98.32623 3711 ft 163 kts 33°
2026-05-06 06:37 26.02012 -98.32026 3524 ft 163 kts 32°
2026-05-06 06:38 26.03028 -98.31434 3339 ft 163 kts 33°
2026-05-06 06:38 26.04021 -98.30854 3162 ft 163 kts 32°
2026-05-06 06:38 26.05056 -98.30271 2981 ft 169 kts 31°
2026-05-06 06:38 26.06108 -98.29678 2785 ft 170 kts 31°
2026-05-06 06:39 26.07159 -98.29073 2589 ft 170 kts 32°
2026-05-06 06:39 26.08232 -98.28497 2399 ft 173 kts 31°
2026-05-06 06:39 26.09331 -98.27920 2219 ft 177 kts 32°
2026-05-06 06:39 26.10471 -98.27345 2050 ft 180 kts 32°
2026-05-06 06:40 26.11599 -98.26783 2045 ft 175 kts 32°
2026-05-06 06:40 26.12707 -98.26242 2041 ft 173 kts 32°
2026-05-06 06:40 26.13783 -98.25708 2036 ft 172 kts 31°
2026-05-06 06:40 26.14850 -98.25160 2033 ft 168 kts 32°
2026-05-06 06:41 26.15917 -98.24644 2026 ft 167 kts 32°
2026-05-06 06:41 26.16990 -98.24137 2027 ft 168 kts 30°
2026-05-06 06:41 26.18115 -98.23770 2029 ft 174 kts
2026-05-06 06:41 26.19266 -98.24121 2031 ft 172 kts 329°
2026-05-06 06:42 26.20255 -98.24845 2032 ft 168 kts 323°
2026-05-06 06:42 26.21219 -98.25557 2029 ft 168 kts 324°
2026-05-06 06:42 26.22181 -98.26289 2030 ft 166 kts 323°
2026-05-06 06:42 26.23136 -98.27008 2032 ft 166 kts 323°
2026-05-06 06:43 26.24097 -98.27720 2032 ft 166 kts 323°
2026-05-06 06:43 26.25072 -98.28429 2031 ft 167 kts 324°
2026-05-06 06:43 26.26036 -98.29144 2030 ft 166 kts 323°
2026-05-06 06:43 26.26993 -98.29857 2032 ft 166 kts 323°
2026-05-06 06:44 26.27962 -98.30575 2033 ft 168 kts 323°
2026-05-06 06:44 26.28974 -98.31229 2028 ft 170 kts 344°
2026-05-06 06:44 26.30137 -98.31305 2036 ft 167 kts
2026-05-06 06:44 26.31306 -98.31301 2038 ft 168 kts
2026-05-06 06:45 26.32475 -98.31344 2035 ft 168 kts 355°
2026-05-06 06:45 26.33533 -98.31860 2019 ft 167 kts 313°
2026-05-06 06:45 26.33984 -98.32943 2023 ft 147 kts 258°
2026-05-06 06:45 26.33602 -98.33829 2022 ft 118 kts 203°
2026-05-06 06:46 26.32871 -98.34078 2038 ft 109 kts 186°
2026-05-06 06:46 26.32127 -98.34265 2042 ft 109 kts 181°
2026-05-06 06:46 26.31446 -98.33977 2043 ft 110 kts 143°
2026-05-06 06:46 26.30865 -98.33423 2041 ft 110 kts 144°
2026-05-06 06:47 26.30268 -98.32876 2045 ft 113 kts 140°
2026-05-06 06:47 26.29842 -98.32120 2024 ft 118 kts 125°
2026-05-06 06:47 26.29290 -98.31476 1885 ft 119 kts 168°
2026-05-06 06:47 26.28464 -98.31445 1885 ft 111 kts 175°
2026-05-06 06:48 26.27722 -98.31384 1926 ft 106 kts 168°
2026-05-06 06:48 26.27025 -98.31223 2009 ft 96 kts 166°
2026-05-06 06:48 26.26375 -98.30994 1862 ft 106 kts 152°
2026-05-06 06:48 26.25731 -98.30453 1579 ft 119 kts 141°
2026-05-06 06:49 26.25036 -98.29898 1284 ft 127 kts 154°
2026-05-06 06:49 26.24317 -98.29556 1275 ft 99 kts 156°
2026-05-06 06:49 26.23702 -98.29247 1148 ft 97 kts 156°
2026-05-06 06:49 26.23106 -98.28925 1025 ft 94 kts 154°
2026-05-06 06:50 26.22543 -98.28525 861 ft 98 kts 145°
2026-05-06 06:50 26.22014 -98.28100 856 ft 92 kts 144°
2026-05-06 06:50 26.21519 -98.27686 893 ft 85 kts 141°
2026-05-06 06:50 26.21053 -98.27215 750 ft 94 kts 126°
2026-05-06 06:51 26.20636 -98.26647 667 ft 94 kts 144°
2026-05-06 06:51 26.20053 -98.26285 555 ft 94 kts 145°
2026-05-06 06:51 26.19602 -98.25783 413 ft 90 kts 137°
2026-05-06 06:51 26.19111 -98.25413 333 ft 82 kts 141°
2026-05-06 06:52 26.18699 -98.25003 211 ft 77 kts 141°
2026-05-06 06:52 26.18295 -98.24639 127 ft 73 kts 141°
2026-05-06 06:52 26.17974 -98.24342 110 ft 35 kts 140°
2026-05-06 06:52 26.17849 -98.24224 109 ft 21 kts 139°
2026-05-06 06:53 26.17758 -98.24134 108 ft 11 kts 134°
2026-05-06 06:53 26.17763 -98.24035 103 ft 25 kts 32°
2026-05-06 06:53 26.17881 -98.23965 100 ft 14 kts 59°
2026-05-06 06:53 26.17940 -98.23898 100 ft 10 kts 27°
2026-05-06 06:54 26.18011 -98.23884 100 ft 8 kts 338°
2026-05-06 06:54 26.18033 -98.23905 100 ft 0 kts 300°